星链-31049 (STARLINK-31049 )

导读 | 星芒AI

STARLINK-31049 是 SpaceX Starlink 卫星互联网项目中的一颗低轨卫星,属于其第二代卫星星座计划的一部分。该卫星于2023年发射,旨在为全球用户提供高速、低延迟的宽带互联网服务。它运行在约550公里高的近地轨道,配备先进通信设备,支持Ka和Ku频段传输。Starlink 项目致力于构建覆盖全球的卫星网络,尤其服务于偏远和网络基础设施薄弱的地区。STARLINK-31049 的部署有助于提升网络容量与连接稳定性,推动全球互联网普及。

基本信息
目录编号:
58543
目录名称:
STARLINK-31049
国际标识:
2023-192N
轨道中心:
EARTH
卫星名称:
星链-31049
卫星全名:
星链-31049 (STARLINK-31049 )
卫星状态:
在轨 (已飞行742 天)
发射日期:
2023-12-08 UTC
国别 :
美国 (US)
星等 :
--
轨道信息
数据来源 国际轨道数据 AOE轨道数据
星历时间 2025-12-18T21:45:45+0800
1天前
查看轨道信息
2025-12-17T09:00:00+0800
2天前
查看轨道信息
半长轴 6853.375km 6853.321km
偏心率 0.0001091 0.0001498
轨道倾角 53.161° 53.165°
近地点辐角 89.457° 101.055°
升交点赤经 79.692° 86.811°
平近点角 270.656° 96.334°
近地点 474.492km 474.159km
远地点 475.988km 476.213km
周期 94.106分钟 94.105分钟
每日圈数 15.301924 15.302107
详细信息
固有亮度:
5
最大亮度:
0.3
卫星平台:
Starlink v2.0 mini
覆盖范围:
全球
运营商:
太空探索技术公司
运营商所在国:
美国
制造商(研发单位):
太空探索技术公司
制造商所在国:
美国
使用方式:
暂无
卫星简介
星链(Starlink)计划是由太空探索技术公司(SpaceX)提出的一个巨型低轨卫星互联网星座项目,计划在2019年至2024年间在太空搭建由约1.2万颗卫星组成的“星链”网络,其中1584颗将部署在地球上空550千米处的近地轨道,并从2020年开始工作。该卫星仍在工作。
2D轨道图
3D轨道图
轨道高度分析图
轨道倾角分析图
轨道综合分析图
查看轨道综合分析图